sat.trackr.live / text

‹ back to catalog

STARLINK-37360

NORAD 68901 · 2026-097G

PAYLOAD ACTIVE UNKNOWN

§ Identity

Operator
Country
US
Launch date
2026-04-30
Launch site
AFWTR
Launch vehicle
Mass (kg)
RCS (m²)

Purposes: comms

External: N2YO · Heavens-Above · Gunter

§ Orbital elements

Epoch: 2026-09-19T23:07:36.519168Z

Period
93.91 min
Inclination
97.2878°
Eccentricity
0.0001449
Mean motion
15.33449423 rev/d
Perigee alt
464.5 km
Apogee alt
466.5 km
Semi-major
6,843.7 km
B*
4.3640e-4
RAAN
97.1727°
Arg perigee
63.7894°
Mean anomaly
296.3497°
Rev number
2,201

§ Raw data

STARLINK-373601 68901U 26097G   26262.96361712  .00014042  00000+0  43640-3 0  99912 68901  97.2878  97.1727 0001449  63.7894 296.3497 15.33449423 22018

JSON: /api/v1/satellites/68901 · /tle

For live sub-satellite position, see the globe view (requires WebGL).

§ Visibility from observer

Set your observer location to see the next 7 days of passes ≥ 10°. The values pass through the URL so the page stays shareable.

No JS? Fill the form by hand. The geolocation button needs JavaScript.